Houghton County Memorial Airport

Airport
ICAO code: 
KCMX
Summary
ICAO Region: 
NAM
Territory: 
Location: 
Hancock / Calumet, Michigan,
Coordinates: 
Aerial View: 
47° 10' 5.998" N, 88° 29' 20" W
Airport CFIT: 
Altimeter Temperature Error Correction
Airport WX: 
Lake Effect Snow
Metar
Observation
KCMX 210601Z AUTO 19005KT 10SM OVC014 M14/M18 A3043 RMK AO2 T11441178
Station
Hancock, Houghton County Memorial Airport
Date/Time
2022-01-21 06:01:00
Wind direction
190°
Wind speed
05 kts
Lowest cloud amount
overcast
Temperature
-14.4°C
Dew point
-17.8°C
Humidity
75%
Weather condition
n/a

Description

Houghton County Memorial Airport is a public use airport located 7 km southwest of the central business district of Calumet, a village in Houghton County, Michigan.

Climatology

Humid Continental climate (Köppen climate classification Dfb) - Variable weather patterns and a large seasonal temperature variance. Summers are often warm and humid with frequent thunderstorms and winters can be very cold with frequent snowfall and persistent snow cover.

Runways

Designator Length Width Surface Rops
7/25 1584 30 ASP Yes/Yes
13/31 1982 46 ASP Yes/Yes
Airport map: 
Aerial View: 

SKYbrary Partners:

Safety knowledge contributed by: